User: anonymous   Login
Location: Strawberry
(45.6646°N, 111.9596°W)
Time: 09:12:18
(UTC+00:00)
Language:

FO-99 - Orbit

View from above orbital plane
View from above orbital plane
View from above satellite
View from above satellite

Ground track
Ground track

The orbit data is extracted from the following two-line orbital elements,

1 43937U 19003F   22330.60809926  .00014918  00000-0  43430-3 0  9999
2 43937  97.1136 357.9494 0016400 295.6280  64.3270 15.35367380214818
Epoch (UTC): 26 November 2022 14:35:39
Eccentricity: 0.0016400
inclination: 97.1136°
perigee height: 448 km
apogee height: 471 km
right ascension of ascending node: 357.9494°
argument of perigee: 295.6280°
revolutions per day: 15.35367380
mean anomaly at epoch: 64.3270°
orbit number at epoch: 21481

The dashed part of the orbit path shows where the satellite is in the earth's shadow,  

DLR